Location: Bats
(43.6587°N, 0.4584°W)
Time: 06:52:27
(UTC+00:00)

Cosmos 2263 - Pass Details

Date: 12 January 2026
Orbit: 830 x 864 km, 70.9° (Epoch: 10 February)

Event Time Altitude Azimuth Distance (km) Brightness Sun altitude
Rises 17:33:47 0° 336° (NNW) 3,429 7.4 -8.5°
Reaches altitude 10° 17:36:16 10° 338° (NNW) 2,484 6.7 -8.9°
Maximum altitude 17:41:58 74° 63° (ENE) 880 4.1 -9.8°
Drops below altitude 10° 17:47:35 10° 149° (SSE) 2,445 6.5 -10.8°
Sets 17:50:01 0° 151° (SSE) 3,371 7.2 -11.2°
